When you browse on this site, cookies collect data to enhance your experience and personalize the content and advertising you see.
Visit our Privacy Policy to learn more. By continuing to use the site, you agree to this use of cookies and data.
  • In Czech Republic
  • List of Countries
  • For 7 days
  • Water Temperature
  • Satellite Maps
  • Weather Map
  • Weather Widgets
  • user-avatar
    Login

    Hourly Weather Wolownia

    Today, 10 December, Monday

    Time Temperature Precipitation Wind Pressure Humidity
    00:00 +1°C° 0.2 mm 4 mps 726 mmHg 96%
    01:00 +1°C° 0.2 mm 3 mps 726 mmHg 96%
    02:00 +1°C° 0 mm 3 mps 726 mmHg 96%
    03:00 +1°C° 0.3 mm 3 mps 726 mmHg 96%
    04:00 +1°C° 0.3 mm 3 mps 726 mmHg 96%
    05:00 +1°C° 0.3 mm 3 mps 726 mmHg 96%
    06:00 +1°C° 0.2 mm 3 mps 727 mmHg 96%
    07:00 +1°C° 0.2 mm 3 mps 727 mmHg 96%
    08:00 +1°C° 0.2 mm 3 mps 727 mmHg 96%
    09:00 +1°C° 0.1 mm 3 mps 728 mmHg 96%
    10:00 +1°C° 0.1 mm 3 mps 728 mmHg 95%
    11:00 +1°C° 0.1 mm 3 mps 728 mmHg 95%
    12:00 +1°C° 0.2 mm 3 mps 729 mmHg 92%
    13:00 +2°C° 0.2 mm 3 mps 729 mmHg 89%
    14:00 +2°C° 0.2 mm 3 mps 730 mmHg 86%
    15:00 +1°C° 0.1 mm 3 mps 730 mmHg 87%
    16:00 +1°C° 0.1 mm 3 mps 731 mmHg 87%
    17:00 0°C° 0.1 mm 3 mps 731 mmHg 88%
    18:00 0°C° 0 mm 3 mps 731 mmHg 88%
    19:00 0°C° 0 mm 3 mps 732 mmHg 88%
    20:00 0°C° 0 mm 3 mps 732 mmHg 89%
    21:00 -1°C° 0 mm 3 mps 732 mmHg 89%
    22:00 -1°C° 0 mm 3 mps 733 mmHg 89%
    23:00 -2°C° 0 mm 2 mps 733 mmHg 90%

    Tomorrow, 11 December, Tuesday

    Time Temperature Precipitation Wind Pressure Humidity
    00:00 -2°C° 0 mm 2 mps 733 mmHg 90%
    01:00 -2°C° 0 mm 2 mps 734 mmHg 91%
    02:00 -2°C° 0 mm 2 mps 734 mmHg 91%
    03:00 -2°C° 0 mm 2 mps 734 mmHg 92%
    04:00 -2°C° 0 mm 2 mps 735 mmHg 92%
    05:00 0°C° 0 mm 1 mps 735 mmHg 93%
    06:00 0°C° 0 mm 1 mps 735 mmHg 93%
    07:00 0°C° 0 mm 1 mps 736 mmHg 93%
    08:00 -1°C° 0 mm 1 mps 736 mmHg 94%
    09:00 0°C° 0 mm 1 mps 737 mmHg 92%
    10:00 0°C° 0 mm 1 mps 737 mmHg 90%
    11:00 +1°C° 0 mm 1 mps 738 mmHg 88%
    12:00 +1°C° 0 mm 1 mps 738 mmHg 87%
    13:00 +2°C° 0 mm 1 mps 738 mmHg 85%
    14:00 +2°C° 0 mm 1 mps 739 mmHg 84%
    15:00 +1°C° 0 mm 1 mps 739 mmHg 87%
    16:00 0°C° 0 mm 0 mps 739 mmHg 89%
    17:00 -1°C° 0 mm 0 mps 740 mmHg 92%
    18:00 -1°C° 0 mm 0 mps 740 mmHg 92%
    19:00 -1°C° 0 mm 0 mps 741 mmHg 92%
    20:00 -1°C° 0 mm 0 mps 741 mmHg 92%
    21:00 -1°C° 0 mm 0 mps 741 mmHg 92%
    22:00 -1°C° 0 mm 0 mps 742 mmHg 92%
    23:00 -1°C° 0 mm 0 mps 742 mmHg 92%

    Day after tomorrow, 12 December, Wednesday

    Time Temperature Precipitation Wind Pressure Humidity
    00:00 0°C° 0 mm 1 mps 742 mmHg 92%
    01:00 0°C° 0 mm 1 mps 743 mmHg 93%
    02:00 0°C° 0 mm 1 mps 743 mmHg 93%
    03:00 0°C° 0 mm 1 mps 743 mmHg 93%
    04:00 -1°C° 0 mm 1 mps 743 mmHg 94%
    05:00 -1°C° 0 mm 1 mps 743 mmHg 94%
    06:00 -1°C° 0 mm 1 mps 744 mmHg 94%
    07:00 -1°C° 0 mm 1 mps 744 mmHg 94%
    08:00 -1°C° 0 mm 1 mps 745 mmHg 94%
    09:00 0°C° 0 mm 1 mps 745 mmHg 93%
    10:00 0°C° 0 mm 1 mps 745 mmHg 92%
    11:00 0°C° 0 mm 1 mps 745 mmHg 90%
    12:00 +1°C° 0 mm 1 mps 745 mmHg 90%
    13:00 -1°C° 0 mm 2 mps 745 mmHg 89%
    14:00 -1°C° 0 mm 2 mps 746 mmHg 88%
    15:00 -1°C° 0 mm 2 mps 746 mmHg 90%
    16:00 -2°C° 0 mm 2 mps 746 mmHg 92%
    17:00 -2°C° 0 mm 2 mps 746 mmHg 95%
    18:00 -2°C° 0 mm 3 mps 746 mmHg 94%
    19:00 -2°C° 0 mm 3 mps 746 mmHg 94%
    20:00 -2°C° 0 mm 3 mps 747 mmHg 93%
    21:00 -2°C° 0 mm 3 mps 747 mmHg 92%
    22:00 -3°C° 0 mm 4 mps 747 mmHg 91%
    23:00 -3°C° 0 mm 4 mps 747 mmHg 90%

    13 December, Thursday

    Time Temperature Precipitation Wind Pressure Humidity
    00:00 -3°C° 0 mm 4 mps 747 mmHg 89%
    01:00 -3°C° 0 mm 4 mps 747 mmHg 88%
    02:00 -3°C° 0 mm 4 mps 747 mmHg 88%
    03:00 -3°C° 0 mm 4 mps 746 mmHg 88%
    04:00 -3°C° 0 mm 4 mps 746 mmHg 87%
    05:00 -3°C° 0 mm 4 mps 746 mmHg 87%
    06:00 -3°C° 0 mm 4 mps 746 mmHg 87%
    07:00 -3°C° 0 mm 4 mps 746 mmHg 86%
    08:00 -3°C° 0 mm 4 mps 746 mmHg 85%
    09:00 -4°C° 0 mm 5 mps 746 mmHg 83%
    10:00 -4°C° 0 mm 5 mps 746 mmHg 81%
    11:00 -4°C° 0 mm 5 mps 746 mmHg 78%
    12:00 -4°C° 0 mm 5 mps 746 mmHg 78%
    13:00 -4°C° 0 mm 5 mps 746 mmHg 77%
    14:00 -4°C° 0 mm 5 mps 746 mmHg 76%
    15:00 -3°C° 0 mm 4 mps 746 mmHg 77%
    16:00 -3°C° 0 mm 4 mps 746 mmHg 79%
    17:00 -3°C° 0 mm 4 mps 746 mmHg 80%
    18:00 -3°C° 0 mm 4 mps 746 mmHg 81%
    19:00 -3°C° 0 mm 4 mps 746 mmHg 82%
    20:00 -4°C° 0 mm 4 mps 746 mmHg 83%
    21:00 -4°C° 0 mm 4 mps 747 mmHg 84%
    22:00 -4°C° 0 mm 3 mps 747 mmHg 85%
    23:00 -4°C° 0 mm 3 mps 747 mmHg 86%

    14 December, Friday

    Time Temperature Precipitation Wind Pressure Humidity
    00:00 -2°C° 0 mm 3 mps 747 mmHg 86%
    01:00 -2°C° 0 mm 3 mps 748 mmHg 87%
    02:00 -2°C° 0 mm 3 mps 748 mmHg 87%
    03:00 -2°C° 0 mm 3 mps 748 mmHg 87%
    04:00 -2°C° 0 mm 3 mps 748 mmHg 88%
    05:00 -2°C° 0 mm 3 mps 748 mmHg 88%
    06:00 -2°C° 0 mm 3 mps 749 mmHg 88%
    07:00 -4°C° 0 mm 3 mps 749 mmHg 89%
    08:00 -4°C° 0 mm 3 mps 749 mmHg 89%
    09:00 -4°C° 0 mm 3 mps 750 mmHg 88%
    10:00 -2°C° 0 mm 3 mps 750 mmHg 86%
    11:00 -2°C° 0 mm 3 mps 751 mmHg 84%
    12:00 -2°C° 0 mm 3 mps 751 mmHg 83%
    13:00 -2°C° 0 mm 2 mps 752 mmHg 82%
    14:00 -1°C° 0 mm 2 mps 752 mmHg 81%
    15:00 -2°C° 0 mm 2 mps 752 mmHg 84%
    16:00 -3°C° 0 mm 2 mps 752 mmHg 87%
    17:00 -3°C° 0 mm 2 mps 753 mmHg 90%
    18:00 -3°C° 0 mm 2 mps 753 mmHg 90%
    19:00 -3°C° 0 mm 2 mps 753 mmHg 90%
    20:00 -3°C° 0 mm 2 mps 754 mmHg 90%
    21:00 -3°C° 0 mm 2 mps 754 mmHg 90%
    22:00 -1°C° 0 mm 1 mps 754 mmHg 90%
    23:00 -1°C° 0 mm 1 mps 755 mmHg 90%

    15 December, Saturday

    Time Temperature Precipitation Wind Pressure Humidity
    00:00 -1°C° 0 mm 1 mps 755 mmHg 89%
    01:00 -1°C° 0 mm 1 mps 755 mmHg 88%
    02:00 -1°C° 0 mm 1 mps 755 mmHg 87%
    03:00 -1°C° 0 mm 1 mps 756 mmHg 86%
    04:00 -1°C° 0 mm 1 mps 756 mmHg 85%
    05:00 -1°C° 0 mm 1 mps 756 mmHg 84%
    06:00 -1°C° 0 mm 1 mps 756 mmHg 84%
    07:00 -1°C° 0 mm 1 mps 756 mmHg 83%
    08:00 -1°C° 0 mm 1 mps 757 mmHg 82%
    09:00 -3°C° 0 mm 2 mps 757 mmHg 81%
    10:00 -2°C° 0 mm 2 mps 757 mmHg 80%
    11:00 -2°C° 0 mm 2 mps 758 mmHg 79%
    12:00 -2°C° 0 mm 2 mps 758 mmHg 78%
    13:00 -2°C° 0 mm 2 mps 758 mmHg 78%
    14:00 -2°C° 0 mm 2 mps 758 mmHg 77%
    15:00 -3°C° 0 mm 2 mps 758 mmHg 80%
    16:00 -3°C° 0 mm 2 mps 758 mmHg 83%
    17:00 -4°C° 0 mm 2 mps 758 mmHg 86%
    18:00 -4°C° 0 mm 2 mps 758 mmHg 86%
    19:00 -4°C° 0 mm 2 mps 759 mmHg 87%
    20:00 -4°C° 0 mm 2 mps 759 mmHg 87%
    21:00 -5°C° 0 mm 2 mps 759 mmHg 86%
    22:00 -5°C° 0 mm 2 mps 759 mmHg 86%
    23:00 -5°C° 0 mm 2 mps 759 mmHg 86%
    Show more